Regional Weather Roundup
Issued by NWS Sioux Falls, SD

Home | Current Version | Previous Version | Graphics & Text | Print | Product List | Glossary On
Versions: 1 2 3 4 5 6 7 8 9 10 11 12 13 14 15 16 17 18 19 20 21 22 23 24 25 26 27 28 29 30 31 32 33 34 35 36 37 38 39 40 41 42 43 44 45 46 47 48 49 50
000
ASUS43 KFSD 221902
RWRFSD

WEATHER ROUNDUP FOR SE SOUTH DAKOTA/SW MINNESOTA/NW IOWA
NATIONAL WEATHER SERVICE SIOUX FALLS SD
100 PM CST MON DEC 22 2014

NOTE: "FAIR" INDICATES FEW OR NO CLOUDS BELOW 12,000 FEET WITH NO
SIGNIFICANT WEATHER AND OR OBSTRUCTIONS TO VISIBILITY.


SDZ038>040-050-052>070-222000-
SOUTHEAST SOUTH DAKOTA

CITY           SKY/WX    TMP DP  RH WIND       PRES   REMARKS
CHAMBERLAIN    NOT AVBL
HURON          CLOUDY    34  31  88 NW7       29.41F WCI  28
MADISON        CLOUDY    34  34 100 SW7       29.40F WCI  28
MITCHELL       CLOUDY    37  36  96 NW9       29.42F
SIOUX FALLS    CLOUDY    39  38  96 CALM      29.40F
WINNER         LGT RAIN  37  34  89 W14       29.46S
YANKTON        CLOUDY    39  36  87 NW9       29.43S
$$

MNZ071-072-080-081-089-090-097-098-222000-
SOUTHWEST MINNESOTA

CITY           SKY/WX    TMP DP  RH WIND       PRES   REMARKS
FAIRMONT       CLOUDY    37  34  87 SE15      29.50F
JACKSON        DRIZZLE   37  36  93 SE13      29.48F
LUVERNE        DRIZZLE   41  37  87 S10       29.42F
MARSHALL       CLOUDY    39  36  87 SE13      29.45F
MONTEVIDEO     DRIZZLE   37  37 100 S16       29.48S
PIPESTONE      LGT RAIN  37  37 100 S9        29.40F
REDWOOD FALLS  LGT RAIN  39  37  92 SE17      29.49F
TRACY          RAIN      39  38  95 SE14      29.45F
WINDOM         DRIZZLE   37  37 100 SE13      29.47F
WORTHINGTON    CLOUDY    37 -11  12 SE15G21   29.44F
$$

IAZ001>003-012>014-020>022-031-032-NEZ013-014-SDZ071-222000-
NORTHWEST IOWA

CITY           SKY/WX    TMP DP  RH WIND       PRES   REMARKS
DENISON        MIX PCPN  41  41 100 SE10G18   29.42F
ESTHERVILLE    CLOUDY    37  37 100 SE17      29.47F FOG
SIOUX CITY     LGT RAIN  42  41  96 S7        29.42F FOG
SPENCER        CLOUDY    40  37  89 SE16G24   29.46F
$$

ABBREVIATIONS USED IN REMARKS
   TC - TEMPERATURE IN CELSIUS
  WCI - WIND CHILL INDEX
   HX - HEAT INDEX
  VSB - VISIBILITY




USA.gov is the U.S. government's official web portal to all federal, state and local government web resources and services.